Overview Statistics Trail Chart Weather Telemetry Raw packets
 

This is the latest recevied weather packets stored in our database for station/object LU1MQF-13. If no packets are shown the sender has not sent any weather packets the latest 10 day(s).

<< 1 2 3 4 >>
Time Temp. Humidity Pressure Rain* Wind** Luminosity Snow
1778031729 17.78° C 58% 935.4 hPa - - - -
1778030829 17.22° C 56% 935.4 hPa - - - -
1778029929 17.22° C 57% 935.3 hPa - - - -
1778029029 17.22° C 55% 935.2 hPa - - - -
1778028129 17.22° C 55% 935.4 hPa - - - -
1778027229 17.22° C 55% 935.6 hPa - - - -
1778026329 17.22° C 56% 935.5 hPa - - - -
1778025429 17.78° C 56% 935.3 hPa - - - -
1778024529 17.78° C 55% 935.3 hPa - - - -
1778023629 17.78° C 56% 935.1 hPa - - - -
1778022729 17.78° C 58% 935 hPa - - - -
1778020929 17.78° C 56% 934.9 hPa - - - -
1778020029 17.78° C 47% 934.9 hPa - - - -
1778019129 18.89° C 46% 934.9 hPa - - - -
1778018229 18.89° C 45% 934.8 hPa - - - -
1778017329 18.89° C 45% 934.8 hPa - - - -
1778016448 20° C 45% 934.7 hPa - - - -
1778015529 21.11° C 42% 934.8 hPa - - - -
1778014633 21.11° C 41% 934.6 hPa - - - -
1778013729 21.11° C 41% 934.7 hPa - - - -
1778012829 22.22° C 41% 934.6 hPa - - - -
1778011929 22.22° C 41% 934.5 hPa - - - -
1778011029 22.22° C 41% 934.5 hPa - - - -
1778010128 22.22° C 41% 934.6 hPa - - - -
1778009229 22.22° C 41% 934.7 hPa - - - -

* Rain since midnight (hover to see other rain measurements)
** Current wind speed in m/s (hover to see current wind gust speed)